Regional Weather Roundup
Issued by NWS

Home | Current Version | Previous Version | Graphics & Text | Print | Product List | Glossary On
Versions: 1 2 3 4 5 6 7 8 9 10 11 12 13 14 15 16 17 18 19 20 21 22 23 24 25 26 27 28 29 30 31 32 33 34 35 36 37 38 39 40 41 42 43 44 45 46 47 48 49 50
000
ASUS45 KTFX 231304
RWRMT
MONTANA HOURLY WEATHER ROUNDUP
NATIONAL WEATHER SERVICE GREAT FALLS MT
704 AM MDT SAT AUG 23 2014

NOTE: "FAIR" INDICATES FEW OR NO CLOUDS BELOW 12000 FEET WITH NO
SIGNIFICANT WEATHER AND/OR OBSTRUCTIONS TO VISIBILITY.

* THESE STATIONS ARE NOT UNDER NWS QUALITY CONTROL. THEY DO NOT
   REPORT WEATHER SUCH AS PRECIPITATION OR FOG.

MTZ001>007-043-231400-
WEST OF THE DIVIDE
CITY           SKY/WX    TMP DP  RH WIND       PRES   REMARKS
KALISPELL      CLOUDY    52  41  66 N7        30.17S
MISSOULA       LGT RAIN  54  43  67 N14       30.13R
BUTTE          RAIN      45  43  93 NW9       30.10R
MULLAN PASS    MOCLDY    39  37  93 CALM      30.19R
* ESSEX        N/A       49  42  77 S2         N/A
* LINCOLN      N/A       46  44  93 E5         N/A
* LOOKOUT PASS N/A       45  40  83 N/A        N/A
* POLSON       N/A       50  40  69 N2G9       N/A
* RONAN APT    CLOUDY    54  45  72 N/A        N/A
* SEELEY LAKE  N/A       47  44  89 SE2        N/A
* THOMP F APT  CLOUDY    45  44  96 N2G7       N/A
$$

MTZ008-052>055-231400-
SOUTHWEST MONTANA
CITY           SKY/WX    TMP DP  RH WIND       PRES   REMARKS
BOZEMAN        LGT RAIN  48  48 100 NW10      30.02R
DILLON         CLOUDY    46  45  96 NE7       30.05S
W YELLOWSTONE  CLOUDY    45  45 100 CALM      30.04F
* THREE FORKS  CLOUDY    48  28  46 N/A        N/A
* BOULDER HILL N/A       41  38  89 N17G22     N/A
* MONIDA PASS  N/A       43  43 100 W9         N/A
* RAYNOLDS PAS N/A       43  43 100 N9G15      N/A
* WHITEHALL    N/A       47  44  89 N10G20     N/A
* WISE RIVER   N/A       45  41  86 S5         N/A
$$

MTZ009>010-012-014-046-048-049-054-231400-
EAST SLOPES AND CENTRAL MONTANA
CITY           SKY/WX    TMP DP  RH WIND       PRES   REMARKS
CUT BANK       RAIN      45  45 100 N20       30.22R
GREAT FALLS    HVY RAIN  48  48 100 NW15      30.09R VSB 3
HELENA         RAIN      48  45  89 NW8       30.12R
MALMSTROM AFB  RAIN      52  52 100 N16       30.09S
* CONRAD       CLOUDY    46  46 100 NW17G22    N/A
* DEARBORN     N/A       48  46  93 NE1G7      N/A
* EAST GLACIER N/A       41  40  96 NE19G29    N/A
* MONARCH      N/A       44  41  89 NW7        N/A
* PENDROY      N/A       43  43 100 N19G26     N/A
* ROGERS PASS  N/A       41  40  96 S6G12      N/A
* SAINT MARY   N/A       42  41  96 NE5G15     N/A
* SWEET GRASS  N/A       45  45 100 N16G22     N/A
$$

MTZ011-013-016-021-035-040-045-047-050-051-231400-
NORTH CENTRAL MONTANA
CITY           SKY/WX    TMP DP  RH WIND       PRES   REMARKS
HAVRE          LGT RAIN  55  54  96 NE17      30.11R
LEWISTOWN      RAIN      54  52  93 N15       29.99F
* CHESTER      N/A       50  48  93 NE14G22    N/A
* DENTON       N/A       53  52  96 N10        N/A
* GEYSER       N/A       48  47  96 W12        N/A
* JUDITH GAP   N/A       49  49 100 NW24G32    N/A
$$

MTZ017>020-022>027-061-062-231400-
NORTHEAST MONTANA
CITY           SKY/WX    TMP DP  RH WIND       PRES   REMARKS
GLASGOW        LGT RAIN  55  54  96 NE24G33   30.01F
GLENDIVE       CLOUDY    59  57  93 E20G26    29.98F
JORDAN         CLOUDY    57  55  93 NE17G28   29.95F
SIDNEY         CLOUDY    57  55  93 NE15      30.03F
WOLF POINT     RAIN      57  54  90 NE25G31   30.03R VSB 3
* BEAVER HILL  N/A       59  57  93 E17G30     N/A
* CIRCLE       N/A       57  56  96 N10G15     N/A
* LINDSAY DVD  N/A       57  57 100 NE19G24    N/A
* SACO         N/A       56  54  93 NE15G20    N/A
$$

MTZ028>042-056>058-231400-
SOUTHCENTRAL AND SOUTHEAST MONTANA
CITY           SKY/WX    TMP DP  RH WIND       PRES   REMARKS
BAKER          LGT RAIN  63  61  93 E20G26    29.95S
BILLINGS       LGT RAIN  57  57 100 SW8       29.89F VSB M1/4
LIVINGSTON     RAIN      48  46  93 W5        30.00F
MILES CITY     CLOUDY    63  61  93 NE8       29.90F
* LAUREL APT   CLOUDY    55  54  96 N/A        N/A
* ROUNDUP APT  CLOUDY    55  52  90 N10G17     N/A
* ALZADA       N/A       63  62  97 E7         N/A
* HYSHAM       N/A       60  58  93 E9         N/A
* LAME DEER    N/A       56  56 100 NE6        N/A
* REED POINT   N/A       54  53  96 W11        N/A
* ROSCOE HILL  N/A       50  47  89 W6G11      N/A
$$

REGIONAL REPORTS...DAKOTAS
CITY           SKY/WX    TMP DP  RH WIND       PRES   REMARKS
WILLISTON      CLOUDY    57  52  83 E16       30.07S
DICKINSON      LGT RAIN  59  57  93 E15       29.98F
BEACH          LGT RAIN  57  57 100 E21G31    29.98F
CROSBY         CLOUDY    54  54 100 NE16G22   30.13S
TIOGA          CLOUDY    54  54 100 E17G23    30.11F
WATFORD CITY   CLOUDY    55  55 100 E15       30.03F
BISMARCK       CLOUDY    61  57  87 NE12      30.02F
GRAND FORKS    FOG       59  59 100 N12       30.05S VSB 1
FARGO          FOG       66  64  93 N7        30.00F VSB 1/2
BUFFALO SD     CLOUDY    61  59  93 E17G26    29.87R
RAPID CITY     LGT RAIN  64  61  90 CALM      29.90F
$$

REGIONAL REPORTS...WYOMING/IDAHO/WASHINGTON
CITY           SKY/WX    TMP DP  RH WIND       PRES   REMARKS
GILLETTE       CLOUDY    61  57  87 SE12      29.90F
SHERIDAN       LGT RAIN  59  57  93 NW3       29.88F VSB 2 1/2
CODY           CLOUDY    54  52  93 CALM      29.97S
YELLOWSTONE LA CLOUDY    39  39 100 CALM      30.11S
SALMON         CLOUDY    52  48  86 CALM      30.06R
MULLAN PASS    MOCLDY    39  37  93 CALM      30.19S
SAND POINT     CLEAR     54  43  67 NE13      30.15S
SPOKANE        FAIR      55  43  64 N5        30.13R
$$

REGIONAL REPORTS...ALBERTA
CITY           SKY/WX    TMP DP  RH WIND       PRES   REMARKS
EDMONTON       FOG       32  30  92 VRB2      30.35S VSB 1
$$

REGIONAL REPORTS...SASKATCHEWAN
CITY           SKY/WX    TMP DP  RH WIND       PRES   REMARKS
SWIFT CURRENT  CLOUDY    52  52 100 NE12G17   30.21R

$$



USA.gov is the U.S. government's official web portal to all federal, state and local government web resources and services.